CEB4806 RPVI-RPLC

Flight info

Callsign CEB4806
Flight time N/A
Altitude 36000
Route LAMBO1S LAMBO B472 IBAGO DCT MIA DCT OLIVA OLIVA3P
Aircraft A320/M-SDE3FGHIRWY/LB1

Departure

Time 2026-05-04 03:16
Airport Iloilo International Airport (RPVI)

Arrival

Time N/A
Airport Clark International Airport / Clark Air Base (RPLC)
Time Latitude Longitude Altitude Speed Heading
2026-05-04 02:42 10.83114 122.49652 139 ft 0 kts 109°
2026-05-04 02:51 10.83114 122.49651 139 ft 0 kts 109°
2026-05-04 03:06 10.83119 122.49636 145 ft 3 kts 107°
2026-05-04 03:06 10.83125 122.49614 139 ft 3 kts 102°
2026-05-04 03:06 10.83129 122.49592 139 ft 3 kts 91°
2026-05-04 03:06 10.83127 122.49570 140 ft 3 kts 64°
2026-05-04 03:07 10.83117 122.49558 144 ft 1 kts 19°
2026-05-04 03:07 10.83113 122.49556 137 ft 2 kts 19°
2026-05-04 03:10 10.83164 122.49575 140 ft 9 kts 20°
2026-05-04 03:10 10.83227 122.49599 140 ft 10 kts 20°
2026-05-04 03:10 10.83300 122.49626 140 ft 12 kts 20°
2026-05-04 03:10 10.83383 122.49658 140 ft 14 kts 20°
2026-05-04 03:11 10.83450 122.49677 140 ft 10 kts
2026-05-04 03:11 10.83499 122.49634 140 ft 9 kts 293°
2026-05-04 03:11 10.83519 122.49577 140 ft 8 kts 289°
2026-05-04 03:11 10.83535 122.49531 140 ft 6 kts 289°
2026-05-04 03:12 10.83548 122.49496 140 ft 4 kts 290°
2026-05-04 03:12 10.83555 122.49475 141 ft 2 kts 290°
2026-05-04 03:12 10.83568 122.49444 141 ft 12 kts 305°
2026-05-04 03:12 10.83622 122.49454 141 ft 8 kts 20°
2026-05-04 03:13 10.83686 122.49477 140 ft 11 kts 20°
2026-05-04 03:13 10.83766 122.49507 139 ft 13 kts 20°
2026-05-04 03:13 10.83855 122.49540 140 ft 14 kts 20°
2026-05-04 03:13 10.83954 122.49577 139 ft 16 kts 20°
2026-05-04 03:14 10.84066 122.49618 138 ft 18 kts 20°
2026-05-04 03:14 10.84187 122.49663 138 ft 18 kts 18°
2026-05-04 03:14 10.84296 122.49688 139 ft 16 kts 20°
2026-05-04 03:14 10.84331 122.49732 139 ft 9 kts 158°
2026-05-04 03:15 10.84287 122.49703 142 ft 5 kts 220°
2026-05-04 03:15 10.84258 122.49689 140 ft 4 kts 201°
2026-05-04 03:15 10.84248 122.49685 140 ft 0 kts 200°
2026-05-04 03:15 10.84193 122.49664 138 ft 36 kts 200°
2026-05-04 03:16 10.83657 122.49466 137 ft 124 kts 200°
2026-05-04 03:16 10.82638 122.49092 304 ft 176 kts 199°
2026-05-04 03:16 10.81862 122.48788 777 ft 179 kts 200°
2026-05-04 03:16 10.80666 122.48307 1454 ft 196 kts 203°
2026-05-04 03:17 10.79516 122.47509 1979 ft 210 kts 230°
2026-05-04 03:17 10.78818 122.46163 2495 ft 219 kts 259°
2026-05-04 03:17 10.78811 122.44614 3021 ft 223 kts 288°
2026-05-04 03:17 10.79556 122.43205 3506 ft 234 kts 318°
2026-05-04 03:18 10.80964 122.42409 4015 ft 234 kts 353°
2026-05-04 03:18 10.82587 122.42244 4631 ft 234 kts
2026-05-04 03:18 10.84192 122.42164 5396 ft 236 kts
2026-05-04 03:18 10.85848 122.42095 6135 ft 241 kts
2026-05-04 03:19 10.87545 122.42040 6729 ft 247 kts
2026-05-04 03:19 10.89295 122.41991 7395 ft 251 kts
2026-05-04 03:19 10.91043 122.41942 8189 ft 252 kts
2026-05-04 03:19 10.92805 122.41742 8938 ft 258 kts 351°
2026-05-04 03:20 10.94558 122.41310 9703 ft 261 kts 346°
2026-05-04 03:20 10.96315 122.40787 10391 ft 264 kts 345°
2026-05-04 03:20 10.98082 122.40239 11043 ft 267 kts 346°
2026-05-04 03:20 10.99876 122.39694 11704 ft 271 kts 346°
2026-05-04 03:21 11.01695 122.39157 12355 ft 274 kts 347°
2026-05-04 03:21 11.03540 122.38628 13008 ft 277 kts 347°
2026-05-04 03:21 11.05406 122.38102 13677 ft 280 kts 348°
2026-05-04 03:21 11.07295 122.37575 14252 ft 283 kts 347°
2026-05-04 03:22 11.09201 122.37046 14833 ft 286 kts 348°
2026-05-04 03:22 11.11132 122.36509 15421 ft 289 kts 348°
2026-05-04 03:22 11.13083 122.35967 15994 ft 292 kts 347°
2026-05-04 03:22 11.15053 122.35420 16551 ft 294 kts 348°
2026-05-04 03:23 11.17012 122.34763 17041 ft 303 kts 340°
2026-05-04 03:23 11.19024 122.33907 17161 ft 323 kts 339°
2026-05-04 03:23 11.21155 122.32988 17291 ft 342 kts 339°
2026-05-04 03:23 11.23400 122.32012 17424 ft 359 kts 339°
2026-05-04 03:24 11.25750 122.30986 17568 ft 375 kts 339°
2026-05-04 03:24 11.28184 122.29921 17886 ft 384 kts 340°
2026-05-04 03:24 11.30663 122.28838 18307 ft 390 kts 339°
2026-05-04 03:24 11.33167 122.27749 18750 ft 393 kts 340°
2026-05-04 03:25 11.35694 122.26654 19195 ft 396 kts 340°
2026-05-04 03:25 11.38241 122.25552 19643 ft 399 kts 338°
2026-05-04 03:25 11.40800 122.24444 20110 ft 401 kts 340°
2026-05-04 03:25 11.43374 122.23329 20557 ft 404 kts 340°
2026-05-04 03:26 11.45964 122.22206 21015 ft 405 kts 338°
2026-05-04 03:26 11.48565 122.21079 21446 ft 408 kts 339°
2026-05-04 03:26 11.51190 122.19941 21817 ft 412 kts 338°
2026-05-04 03:26 11.53832 122.18795 22229 ft 414 kts 339°
2026-05-04 03:27 11.56494 122.17638 22605 ft 417 kts 339°
2026-05-04 03:27 11.59173 122.16474 23034 ft 419 kts 338°
2026-05-04 03:27 11.61862 122.15306 23462 ft 421 kts 338°
2026-05-04 03:27 11.64570 122.14128 23777 ft 424 kts 338°
2026-05-04 03:28 11.67286 122.12945 24138 ft 425 kts 338°
2026-05-04 03:28 11.70014 122.11758 24455 ft 427 kts 339°
2026-05-04 03:28 11.72757 122.10569 24730 ft 430 kts 338°
2026-05-04 03:28 11.75520 122.09370 25053 ft 432 kts 338°
2026-05-04 03:29 11.78297 122.08162 25339 ft 435 kts 339°
2026-05-04 03:29 11.81087 122.06946 25632 ft 438 kts 338°
2026-05-04 03:29 11.83895 122.05726 25999 ft 439 kts 338°
2026-05-04 03:29 11.86714 122.04504 26304 ft 441 kts 338°
2026-05-04 03:30 11.89544 122.03277 26643 ft 442 kts 338°
2026-05-04 03:30 11.92344 122.02061 26945 ft 444 kts 338°
2026-05-04 03:30 11.95196 122.00819 27210 ft 447 kts 338°
2026-05-04 03:30 11.98064 121.99571 27510 ft 449 kts 338°
2026-05-04 03:31 12.00943 121.98312 27768 ft 451 kts 338°
2026-05-04 03:31 12.03834 121.97046 28077 ft 453 kts 338°
2026-05-04 03:31 12.06737 121.95774 28371 ft 455 kts 338°
2026-05-04 03:31 12.09652 121.94497 28659 ft 457 kts 338°
2026-05-04 03:32 12.12580 121.93219 28974 ft 458 kts 338°
2026-05-04 03:32 12.15519 121.91942 29279 ft 459 kts 338°
2026-05-04 03:32 12.18467 121.90661 29551 ft 462 kts 338°
2026-05-04 03:32 12.21421 121.89373 29825 ft 463 kts 338°
2026-05-04 03:33 12.24393 121.88075 30072 ft 466 kts 338°
2026-05-04 03:33 12.27380 121.86769 30271 ft 468 kts 338°
2026-05-04 03:33 12.30376 121.85460 30500 ft 469 kts 337°
2026-05-04 03:33 12.33378 121.84146 30745 ft 470 kts 337°
2026-05-04 03:34 12.36390 121.82827 30969 ft 471 kts 337°
2026-05-04 03:34 12.39408 121.81507 31186 ft 473 kts 337°
2026-05-04 03:34 12.42432 121.80182 31462 ft 473 kts 338°
2026-05-04 03:34 12.45455 121.78860 31755 ft 472 kts 337°
2026-05-04 03:35 12.48469 121.77545 32123 ft 470 kts 336°
2026-05-04 03:35 12.51470 121.76235 32468 ft 468 kts 336°
2026-05-04 03:35 12.54463 121.74927 32794 ft 467 kts 336°
2026-05-04 03:35 12.57446 121.73620 33150 ft 465 kts 336°
2026-05-04 03:36 12.60420 121.72315 33478 ft 464 kts 336°
2026-05-04 03:36 12.63385 121.71011 33825 ft 463 kts 336°
2026-05-04 03:36 12.66341 121.69712 34148 ft 462 kts 336°
2026-05-04 03:36 12.69292 121.68419 34420 ft 461 kts 336°
2026-05-04 03:37 12.72240 121.67127 34676 ft 460 kts 336°
2026-05-04 03:37 12.75176 121.65840 34924 ft 460 kts 336°
2026-05-04 03:37 12.78116 121.64551 35177 ft 459 kts 335°
2026-05-04 03:37 12.81013 121.63280 35430 ft 459 kts 335°
2026-05-04 03:38 12.83944 121.61994 35680 ft 458 kts 335°
2026-05-04 03:38 12.86871 121.60708 35892 ft 458 kts 335°
2026-05-04 03:38 12.89792 121.59426 35960 ft 455 kts 335°
2026-05-04 03:39 12.95617 121.56867 35968 ft 451 kts 335°
2026-05-04 03:39 13.01343 121.54353 35969 ft 450 kts 335°
2026-05-04 03:40 13.07103 121.51819 35971 ft 450 kts 335°
2026-05-04 03:40 13.12866 121.49276 35972 ft 451 kts 335°
2026-05-04 03:41 13.18631 121.46731 35967 ft 451 kts 335°
2026-05-04 03:41 13.24392 121.44189 35968 ft 451 kts 335°
2026-05-04 03:42 13.30165 121.41649 35973 ft 451 kts 335°
2026-05-04 03:42 13.35664 121.39229 35972 ft 451 kts 335°
2026-05-04 03:43 13.41431 121.36683 35971 ft 451 kts 335°
2026-05-04 03:43 13.47189 121.34143 35967 ft 451 kts 335°
2026-05-04 03:44 11.09686 122.27368 11872 ft 466 kts 51°